Weather History for KMLP - March, 2014

Change the Weather History Date:

Thursday, March 13, 2014

  Actual Average (K3TH) Record (K3TH)
Temperature  
Mean Temperature 32 °F -  
Max Temperature 39 °F 43 °F 62 °F (1998)
Min Temperature 26 °F 28 °F 23 °F (1997)
Degree Days  
Heating Degree Days 32    
Moisture  
Dew Point 23 °F    
Average Humidity 69    
Maximum Humidity 84    
Minimum Humidity 55    
Precipitation  
Precipitation 0.00 in - - ()
Sea Level Pressure  
Sea Level Pressure 29.93 in    
Wind  
Wind Speed 5 mph (WSW)    
Max Wind Speed 9 mph    
Max Gust Speed 16 mph    
Visibility 10 miles    
Events      
Averages and records for this station are not official NWS values.
T = Trace of Precipitation, MM = Missing Value Source: NWS Daily Summary

Daily Weather History Graph

Daily Weather History Graph

Search for Another Location

Airport or City:

Trip Planner

Search our weather history database for the weather conditions in past years. The results will help you decide how hot, cold, wet, or windy it might be!

Date:

Astronomy

Mar. 13, 2014 Rise Set
Actual Time 6:59 AM PDT 6:45 PM PDT
Civil Twilight 6:28 AM PDT 7:16 PM PDT
Nautical Twilight 5:53 AM PDT 7:51 PM PDT
Astronomical Twilight 5:16 AM PDT 8:28 PM PDT
Moon 4:07 PM PDT (3/13) 5:18 AM PDT (3/13)
Length of Visible Light 12h 47m
Length of Day
11h 46m
Waxing Gibbous, 92% of the Moon is Illuminated
Mar 13
Waxing Gibbous
Mar 16
Full
Mar 23
Last Quarter
Mar 30
New
Apr 7
First Quarter

Hourly Weather History & Observations

Time (PDT) Temp. Windchill Dew Point Humidity Pressure Visibility Wind Dir Wind Speed Gust Speed Precip Events Conditions
12:53 AM 30.9 °F 26.2 °F 21.9 °F 69% 29.94 in 10.0 mi Variable 4.6 mph - N/A   Clear
1:53 AM 30.9 °F 23.5 °F 23.0 °F 72% 29.93 in 10.0 mi WSW 8.1 mph - N/A   Clear
2:53 AM 28.9 °F 23.9 °F 21.9 °F 75% 29.91 in 10.0 mi Variable 4.6 mph - N/A   Clear
3:53 AM 28.0 °F 20.8 °F 21.9 °F 78% 29.90 in 10.0 mi Variable 6.9 mph - N/A   Clear
4:53 AM 28.0 °F 22.8 °F 23.0 °F 81% 29.90 in 10.0 mi Variable 4.6 mph - N/A   Overcast
5:53 AM 27.0 °F 21.6 °F 21.9 °F 81% 29.90 in 10.0 mi WNW 4.6 mph - N/A   Clear
6:53 AM 26.1 °F 19.4 °F 21.9 °F 84% 30.05 in 10.0 mi Variable 5.8 mph - N/A   Clear
7:53 AM 26.1 °F 20.5 °F 21.9 °F 84% 30.07 in 10.0 mi Variable 4.6 mph - N/A   Clear
8:53 AM 30.0 °F - 23.0 °F 75% 29.91 in 10.0 mi Calm Calm - N/A   Clear
9:53 AM 32.0 °F 27.5 °F 24.1 °F 73% 29.92 in 10.0 mi Variable 4.6 mph - N/A   Clear
10:53 AM 32.0 °F 28.7 °F 24.1 °F 73% 29.94 in 10.0 mi Variable 3.5 mph - N/A   Clear
11:53 AM 35.1 °F 29.3 °F 24.1 °F 64% 29.93 in 10.0 mi Variable 6.9 mph - N/A   Partly Cloudy
12:53 PM 36.0 °F 29.6 °F 21.9 °F 57% 29.91 in 10.0 mi WNW 8.1 mph - N/A   Clear
1:53 PM 39.0 °F 35.7 °F 25.0 °F 57% 29.90 in 10.0 mi Variable 4.6 mph - N/A   Clear
2:53 PM 37.9 °F 33.5 °F 24.1 °F 57% 29.91 in 10.0 mi Variable 5.8 mph - N/A   Clear
3:53 PM 37.0 °F 34.5 °F 24.1 °F 59% 29.92 in 10.0 mi Variable 3.5 mph - N/A   Clear
4:53 PM 36.0 °F 30.3 °F 21.0 °F 55% 29.92 in 10.0 mi WSW 6.9 mph - N/A   Clear
5:53 PM 34.0 °F 31.0 °F 23.0 °F 64% 29.92 in 10.0 mi Variable 3.5 mph - N/A   Clear
6:53 PM 33.1 °F 26.9 °F 23.0 °F 66% 29.90 in 10.0 mi SW 6.9 mph - N/A   Clear
7:53 PM 32.0 °F 27.5 °F 21.9 °F 66% 30.05 in 10.0 mi Variable 4.6 mph - N/A   Clear
8:53 PM 30.9 °F 22.8 °F 21.9 °F 69% 29.89 in 10.0 mi SW 9.2 mph 16.1 mph N/A   Clear
9:53 PM 30.0 °F 22.4 °F 21.9 °F 72% 29.89 in 10.0 mi SW 8.1 mph - N/A   Clear
10:53 PM 30.0 °F 23.2 °F 21.0 °F 69% 29.88 in 10.0 mi WSW 6.9 mph - N/A   Clear
11:53 PM 30.0 °F 23.2 °F 19.9 °F 66% 29.87 in 10.0 mi WSW 6.9 mph - N/A   Clear